STAR9 KHMT-KHMT

Flight info

Callsign STAR9
Flight time 1h 23m
Altitude 3500
Route VFR
Aircraft EC35/M-SDE3FGHIRWY/LB1

Departure

Time 2026-05-07 01:52
Airport Hemet Ryan Airport (KHMT)

Arrival

Time 2026-05-07 03:16
Airport Hemet Ryan Airport (KHMT)
Time Latitude Longitude Altitude Speed Heading
2026-05-07 01:48 33.73062 -117.02170 1514 ft 0 kts 156°
2026-05-07 01:50 33.73062 -117.02168 1517 ft 2 kts 89°
2026-05-07 01:50 33.73068 -117.02158 1517 ft 2 kts 50°
2026-05-07 01:51 33.73079 -117.02141 1519 ft 3 kts 46°
2026-05-07 01:51 33.73095 -117.02124 1522 ft 5 kts 21°
2026-05-07 01:51 33.73131 -117.02125 1523 ft 5 kts
2026-05-07 01:51 33.73142 -117.02131 1520 ft 2 kts 50°
2026-05-07 01:52 33.73146 -117.02129 1560 ft 3 kts 151°
2026-05-07 01:52 33.73145 -117.02151 1676 ft 16 kts 252°
2026-05-07 01:52 33.73134 -117.02405 1957 ft 44 kts 261°
2026-05-07 01:52 33.73108 -117.02888 2115 ft 76 kts 255°
2026-05-07 01:53 33.72871 -117.03636 2091 ft 112 kts 237°
2026-05-07 01:53 33.72425 -117.04469 2112 ft 113 kts 225°
2026-05-07 01:53 33.71704 -117.04724 2301 ft 108 kts 189°
2026-05-07 01:53 33.71010 -117.05004 2464 ft 106 kts 205°
2026-05-07 01:54 33.70355 -117.05451 2531 ft 111 kts 223°
2026-05-07 01:54 33.69946 -117.06220 2548 ft 114 kts 248°
2026-05-07 01:54 33.69721 -117.07147 2543 ft 119 kts 253°
2026-05-07 01:54 33.69551 -117.08141 2538 ft 123 kts 257°
2026-05-07 01:55 33.69403 -117.09172 2529 ft 127 kts 258°
2026-05-07 01:55 33.69271 -117.10230 2524 ft 129 kts 259°
2026-05-07 01:55 33.69151 -117.11306 2518 ft 130 kts 259°
2026-05-07 01:55 33.69026 -117.12390 2516 ft 131 kts 259°
2026-05-07 01:56 33.68895 -117.13430 2652 ft 118 kts 259°
2026-05-07 01:56 33.68774 -117.14354 2846 ft 107 kts 259°
2026-05-07 01:56 33.68650 -117.15196 3049 ft 101 kts 259°
2026-05-07 01:56 33.68517 -117.16003 3256 ft 96 kts 260°
2026-05-07 01:57 33.68376 -117.16771 3459 ft 93 kts 259°
2026-05-07 01:57 33.68232 -117.17528 3662 ft 93 kts 259°
2026-05-07 01:57 33.68090 -117.18287 3863 ft 94 kts 259°
2026-05-07 01:57 33.67945 -117.19050 4033 ft 94 kts 259°
2026-05-07 01:58 33.67787 -117.19811 4228 ft 94 kts 259°
2026-05-07 01:58 33.67625 -117.20581 4392 ft 98 kts 259°
2026-05-07 01:58 33.67451 -117.21404 4465 ft 106 kts 259°
2026-05-07 01:58 33.67276 -117.22305 4484 ft 115 kts 259°
2026-05-07 01:59 33.67095 -117.23250 4477 ft 121 kts 259°
2026-05-07 01:59 33.66909 -117.24244 4471 ft 123 kts 259°
2026-05-07 01:59 33.66711 -117.25250 4461 ft 124 kts 259°
2026-05-07 01:59 33.66511 -117.26265 4458 ft 125 kts 258°
2026-05-07 02:00 33.66318 -117.27286 4457 ft 125 kts 259°
2026-05-07 02:00 33.66123 -117.28298 4454 ft 125 kts 259°
2026-05-07 02:00 33.65923 -117.29316 4457 ft 125 kts 259°
2026-05-07 02:00 33.65727 -117.30335 4459 ft 125 kts 259°
2026-05-07 02:01 33.65534 -117.31354 4457 ft 125 kts 259°
2026-05-07 02:01 33.65348 -117.32357 4455 ft 125 kts 259°
2026-05-07 02:01 33.65155 -117.33373 4453 ft 124 kts 259°
2026-05-07 02:01 33.64957 -117.34383 4453 ft 125 kts 259°
2026-05-07 02:02 33.64756 -117.35397 4457 ft 125 kts 259°
2026-05-07 02:02 33.64561 -117.36416 4462 ft 125 kts 259°
2026-05-07 02:02 33.64369 -117.37434 4462 ft 125 kts 259°
2026-05-07 02:02 33.64169 -117.38446 4462 ft 124 kts 259°
2026-05-07 02:03 33.63974 -117.39452 4464 ft 124 kts 259°
2026-05-07 02:03 33.63770 -117.40457 4466 ft 124 kts 259°
2026-05-07 02:03 33.63562 -117.41471 4467 ft 126 kts 259°
2026-05-07 02:03 33.63353 -117.42497 4464 ft 127 kts 259°
2026-05-07 02:04 33.63145 -117.43526 4462 ft 127 kts 258°
2026-05-07 02:04 33.62943 -117.44556 4461 ft 127 kts 259°
2026-05-07 02:04 33.62746 -117.45580 4461 ft 125 kts 259°
2026-05-07 02:04 33.62548 -117.46593 4463 ft 125 kts 259°
2026-05-07 02:05 33.62343 -117.47603 4470 ft 125 kts 259°
2026-05-07 02:05 33.62133 -117.48595 4472 ft 124 kts 259°
2026-05-07 02:05 33.61922 -117.49596 4476 ft 123 kts 258°
2026-05-07 02:05 33.61727 -117.50597 4479 ft 123 kts 259°
2026-05-07 02:06 33.61532 -117.51603 4480 ft 124 kts 259°
2026-05-07 02:06 33.61331 -117.52612 4481 ft 125 kts 259°
2026-05-07 02:06 33.61101 -117.53756 3785 ft 159 kts 258°
2026-05-07 02:06 33.60851 -117.55079 3079 ft 165 kts 259°
2026-05-07 02:07 33.60601 -117.56384 2589 ft 162 kts 259°
2026-05-07 02:07 33.60435 -117.58822 2480 ft 135 kts 277°
2026-05-07 02:07 33.60556 -117.59913 2514 ft 131 kts 279°
2026-05-07 02:08 33.60699 -117.60990 2524 ft 129 kts 282°
2026-05-07 02:08 33.60878 -117.62036 2541 ft 128 kts 284°
2026-05-07 02:08 33.61084 -117.63085 2546 ft 130 kts 286°
2026-05-07 02:08 33.61302 -117.64140 2534 ft 131 kts 287°
2026-05-07 02:09 33.61565 -117.65247 2235 ft 147 kts 288°
2026-05-07 02:09 33.61878 -117.66488 1982 ft 150 kts 289°
2026-05-07 02:09 33.62146 -117.67591 1952 ft 131 kts 289°
2026-05-07 02:09 33.62409 -117.68647 1438 ft 153 kts 289°
2026-05-07 02:10 33.62722 -117.69796 1426 ft 136 kts 290°
2026-05-07 02:10 33.63029 -117.70819 1455 ft 126 kts 291°
2026-05-07 02:10 33.63326 -117.71768 1484 ft 118 kts 294°
2026-05-07 02:10 33.63714 -117.72598 1510 ft 113 kts 307°
2026-05-07 02:11 33.64248 -117.73287 1520 ft 112 kts 317°
2026-05-07 02:11 33.64857 -117.73861 1520 ft 111 kts 323°
2026-05-07 02:11 33.65507 -117.74361 1520 ft 111 kts 329°
2026-05-07 02:11 33.66186 -117.74771 1521 ft 110 kts 332°
2026-05-07 02:12 33.66887 -117.75163 1522 ft 112 kts 333°
2026-05-07 02:12 33.67605 -117.75553 1521 ft 114 kts 334°
2026-05-07 02:12 33.68316 -117.75937 1509 ft 112 kts 334°
2026-05-07 02:12 33.69026 -117.76334 1524 ft 114 kts 332°
2026-05-07 02:13 33.69750 -117.76763 1516 ft 117 kts 331°
2026-05-07 02:13 33.70477 -117.77228 1510 ft 119 kts 329°
2026-05-07 02:13 33.71201 -117.77713 1506 ft 119 kts 328°
2026-05-07 02:13 33.71917 -117.78196 1506 ft 118 kts 327°
2026-05-07 02:14 33.72635 -117.78685 1507 ft 119 kts 328°
2026-05-07 02:14 33.73352 -117.79175 1494 ft 118 kts 328°
2026-05-07 02:14 33.74058 -117.79662 1508 ft 117 kts 328°
2026-05-07 02:14 33.74738 -117.80178 1502 ft 118 kts 324°
2026-05-07 02:15 33.75405 -117.80747 1487 ft 117 kts 321°
2026-05-07 02:15 33.76054 -117.81331 1475 ft 116 kts 320°
2026-05-07 02:15 33.76677 -117.81901 1467 ft 116 kts 320°
2026-05-07 02:15 33.77313 -117.82491 1486 ft 116 kts 320°
2026-05-07 02:16 33.77954 -117.83092 1491 ft 117 kts 320°
2026-05-07 02:16 33.78588 -117.83711 1495 ft 119 kts 317°
2026-05-07 02:16 33.79189 -117.84408 1492 ft 120 kts 312°
2026-05-07 02:16 33.79751 -117.85138 1479 ft 122 kts 309°
2026-05-07 02:17 33.80283 -117.85894 1472 ft 121 kts 307°
2026-05-07 02:17 33.80808 -117.86680 1480 ft 119 kts 307°
2026-05-07 02:17 33.81320 -117.87453 1487 ft 118 kts 307°
2026-05-07 02:17 33.81414 -117.88358 1488 ft 116 kts 248°
2026-05-07 02:18 33.80895 -117.89055 1482 ft 113 kts 209°
2026-05-07 02:18 33.80141 -117.89172 1480 ft 111 kts 168°
2026-05-07 02:18 33.79494 -117.88682 1472 ft 112 kts 139°
2026-05-07 02:18 33.79116 -117.87884 1471 ft 114 kts 90°
2026-05-07 02:19 33.79606 -117.87188 1487 ft 119 kts 10°
2026-05-07 02:19 33.80304 -117.87596 1510 ft 118 kts 297°
2026-05-07 02:19 33.80215 -117.88470 1498 ft 118 kts 226°
2026-05-07 02:19 33.79442 -117.88551 1443 ft 123 kts 150°
2026-05-07 02:20 33.79168 -117.87639 1429 ft 126 kts 73°
2026-05-07 02:20 33.79666 -117.86832 1450 ft 119 kts 70°
2026-05-07 02:20 33.79424 -117.85934 1480 ft 122 kts 147°
2026-05-07 02:20 33.78636 -117.85997 1499 ft 123 kts 222°
2026-05-07 02:21 33.78511 -117.86938 1464 ft 123 kts 297°
2026-05-07 02:21 33.79229 -117.87448 1440 ft 123 kts 338°
2026-05-07 02:21 33.79792 -117.88114 1480 ft 115 kts 283°
2026-05-07 02:21 33.79471 -117.88925 1477 ft 119 kts 207°
2026-05-07 02:22 33.78723 -117.88706 1454 ft 122 kts 130°
2026-05-07 02:22 33.78720 -117.87761 1454 ft 122 kts 52°
2026-05-07 02:22 33.79481 -117.87526 1491 ft 121 kts 335°
2026-05-07 02:22 33.80048 -117.88234 1506 ft 116 kts 298°
2026-05-07 02:23 33.80362 -117.89118 1508 ft 115 kts 290°
2026-05-07 02:23 33.80692 -117.90002 1499 ft 116 kts 298°
2026-05-07 02:23 33.81159 -117.90801 1494 ft 119 kts 307°
2026-05-07 02:23 33.81712 -117.91557 1492 ft 121 kts 311°
2026-05-07 02:24 33.82285 -117.92292 1493 ft 121 kts 312°
2026-05-07 02:24 33.82861 -117.93017 1493 ft 121 kts 312°
2026-05-07 02:24 33.83445 -117.93751 1493 ft 121 kts 312°
2026-05-07 02:24 33.83988 -117.94456 1475 ft 120 kts 308°
2026-05-07 02:25 33.84481 -117.95257 1490 ft 118 kts 303°
2026-05-07 02:25 33.84921 -117.96089 1498 ft 118 kts 301°
2026-05-07 02:25 33.85354 -117.96934 1502 ft 119 kts 300°
2026-05-07 02:25 33.85787 -117.97787 1501 ft 120 kts 300°
2026-05-07 02:26 33.86215 -117.98638 1499 ft 119 kts 300°
2026-05-07 02:26 33.86642 -117.99487 1514 ft 119 kts 301°
2026-05-07 02:26 33.87041 -118.00335 1496 ft 117 kts 300°
2026-05-07 02:26 33.87367 -118.01035 1465 ft 119 kts 300°
2026-05-07 02:27 33.87761 -118.01897 1481 ft 116 kts 300°
2026-05-07 02:27 33.88149 -118.02744 1486 ft 115 kts 300°
2026-05-07 02:27 33.88531 -118.03591 1489 ft 115 kts 300°
2026-05-07 02:27 33.88939 -118.04428 1491 ft 116 kts 302°
2026-05-07 02:28 33.89394 -118.05236 1493 ft 117 kts 306°
2026-05-07 02:28 33.89884 -118.06016 1494 ft 117 kts 308°
2026-05-07 02:28 33.90431 -118.06740 1478 ft 116 kts 315°
2026-05-07 02:28 33.91009 -118.07313 1471 ft 115 kts 314°
2026-05-07 02:29 33.91466 -118.08073 1511 ft 111 kts 293°
2026-05-07 02:29 33.91642 -118.08962 1527 ft 109 kts 274°
2026-05-07 02:29 33.91628 -118.09879 1530 ft 111 kts 267°
2026-05-07 02:29 33.91553 -118.10797 1526 ft 110 kts 261°
2026-05-07 02:30 33.91396 -118.11709 1524 ft 111 kts 259°
2026-05-07 02:30 33.91259 -118.12644 1529 ft 115 kts 261°
2026-05-07 02:30 33.91157 -118.13617 1525 ft 119 kts 263°
2026-05-07 02:30 33.91092 -118.14604 1520 ft 121 kts 266°
2026-05-07 02:31 33.91033 -118.15612 1517 ft 120 kts 266°
2026-05-07 02:31 33.90968 -118.16615 1514 ft 120 kts 266°
2026-05-07 02:31 33.90813 -118.17584 1509 ft 117 kts 247°
2026-05-07 02:31 33.90448 -118.18440 1520 ft 114 kts 250°
2026-05-07 02:32 33.90155 -118.19304 1516 ft 111 kts 231°
2026-05-07 02:32 33.89593 -118.19947 1524 ft 112 kts 225°
2026-05-07 02:32 33.88999 -118.20566 1526 ft 114 kts 221°
2026-05-07 02:32 33.88348 -118.21124 1516 ft 116 kts 213°
2026-05-07 02:33 33.87700 -118.21689 1532 ft 115 kts 237°
2026-05-07 02:33 33.87408 -118.22574 1532 ft 117 kts 256°
2026-05-07 02:33 33.87277 -118.23551 1527 ft 119 kts 266°
2026-05-07 02:33 33.87256 -118.24549 1526 ft 119 kts 270°
2026-05-07 02:34 33.87256 -118.25536 1490 ft 115 kts 270°
2026-05-07 02:34 33.87253 -118.26482 1470 ft 111 kts 269°
2026-05-07 02:34 33.87258 -118.27405 1462 ft 109 kts 270°
2026-05-07 02:34 33.87051 -118.28235 1465 ft 102 kts 245°
2026-05-07 02:35 33.86688 -118.28961 1475 ft 101 kts 240°
2026-05-07 02:35 33.86610 -118.29740 1486 ft 98 kts 297°
2026-05-07 02:35 33.87238 -118.29969 1436 ft 108 kts 21°
2026-05-07 02:35 33.87555 -118.29212 1435 ft 106 kts 100°
2026-05-07 02:36 33.87088 -118.28661 1476 ft 102 kts 178°
2026-05-07 02:36 33.86510 -118.29033 1506 ft 96 kts 236°
2026-05-07 02:36 33.86501 -118.29790 1501 ft 95 kts 303°
2026-05-07 02:36 33.87102 -118.29991 1464 ft 101 kts 21°
2026-05-07 02:37 33.87443 -118.29316 1461 ft 100 kts 96°
2026-05-07 02:37 33.87023 -118.28734 1520 ft 95 kts 170°
2026-05-07 02:37 33.86459 -118.28967 1427 ft 62 kts 233°
2026-05-07 02:37 33.86395 -118.29116 1362 ft 10 kts 246°
2026-05-07 02:38 33.86352 -118.29196 1301 ft 10 kts 246°
2026-05-07 02:38 33.86288 -118.29273 1290 ft 20 kts 244°
2026-05-07 02:38 33.86181 -118.29483 1310 ft 39 kts 268°
2026-05-07 02:38 33.86181 -118.29880 1281 ft 54 kts 297°
2026-05-07 02:39 33.86344 -118.30283 1312 ft 54 kts 312°
2026-05-07 02:39 33.86643 -118.30594 1297 ft 58 kts 316°
2026-05-07 02:39 33.86861 -118.30905 1366 ft 40 kts 292°
2026-05-07 02:39 33.86702 -118.31213 1222 ft 64 kts 205°
2026-05-07 02:40 33.86337 -118.31007 1183 ft 59 kts 104°
2026-05-07 02:40 33.86376 -118.30494 1094 ft 68 kts 93°
2026-05-07 02:40 33.86339 -118.30029 1133 ft 40 kts 97°
2026-05-07 02:40 33.86302 -118.29766 1119 ft 27 kts 100°
2026-05-07 02:41 33.86276 -118.29579 1026 ft 14 kts 102°
2026-05-07 02:41 33.86272 -118.29536 856 ft 4 kts 101°
2026-05-07 02:41 33.86264 -118.29530 676 ft 0 kts 119°
2026-05-07 02:41 33.86268 -118.29524 589 ft 1 kts 116°
2026-05-07 02:42 33.86263 -118.29522 580 ft 2 kts 71°
2026-05-07 02:42 33.86264 -118.29520 589 ft 3 kts 39°
2026-05-07 02:42 33.86266 -118.29510 582 ft 2 kts 39°
2026-05-07 02:42 33.86263 -118.29505 608 ft 0 kts 39°
2026-05-07 02:43 33.86267 -118.29506 652 ft 1 kts 51°
2026-05-07 02:43 33.86266 -118.29483 687 ft 3 kts 59°
2026-05-07 02:43 33.86254 -118.29480 755 ft 1 kts 41°
2026-05-07 02:43 33.86251 -118.29474 834 ft 1 kts 41°
2026-05-07 02:44 33.86245 -118.29466 916 ft 2 kts 41°
2026-05-07 02:44 33.86236 -118.29455 999 ft 2 kts 41°
2026-05-07 02:44 33.86230 -118.29451 1073 ft 0 kts 36°
2026-05-07 02:44 33.86238 -118.29450 1153 ft 3 kts 36°
2026-05-07 02:45 33.86289 -118.29423 1226 ft 17 kts 36°
2026-05-07 02:45 33.86459 -118.29276 1484 ft 44 kts 33°
2026-05-07 02:45 33.86798 -118.28960 1595 ft 77 kts 43°
2026-05-07 02:45 33.87090 -118.28299 1629 ft 100 kts 66°
2026-05-07 02:46 33.87293 -118.27427 1605 ft 115 kts 78°
2026-05-07 02:46 33.87395 -118.26513 1554 ft 124 kts 85°
2026-05-07 02:46 33.87422 -118.25469 1549 ft 125 kts 88°
2026-05-07 02:46 33.87433 -118.24421 1541 ft 126 kts 89°
2026-05-07 02:47 33.87437 -118.23361 1520 ft 128 kts 89°
2026-05-07 02:47 33.87437 -118.22287 1520 ft 128 kts 89°
2026-05-07 02:47 33.87437 -118.21206 1527 ft 130 kts 89°
2026-05-07 02:47 33.87438 -118.20485 1528 ft 130 kts 89°
2026-05-07 02:48 33.87414 -118.19176 1517 ft 128 kts 91°
2026-05-07 02:48 33.87429 -118.18107 1528 ft 128 kts 88°
2026-05-07 02:48 33.87476 -118.17033 1528 ft 129 kts 87°
2026-05-07 02:48 33.87530 -118.15956 1530 ft 128 kts 86°
2026-05-07 02:49 33.87585 -118.14888 1527 ft 127 kts 86°
2026-05-07 02:49 33.87634 -118.13938 1427 ft 131 kts 87°
2026-05-07 02:49 33.87685 -118.12833 1457 ft 126 kts 86°
2026-05-07 02:49 33.87729 -118.11796 1465 ft 123 kts 86°
2026-05-07 02:50 33.87771 -118.10768 1497 ft 123 kts 86°
2026-05-07 02:50 33.87815 -118.09746 1511 ft 127 kts 86°
2026-05-07 02:50 33.87862 -118.08681 1529 ft 128 kts 86°
2026-05-07 02:50 33.87842 -118.07615 1523 ft 127 kts 95°
2026-05-07 02:51 33.87673 -118.06584 1535 ft 125 kts 105°
2026-05-07 02:51 33.87355 -118.05616 1533 ft 124 kts 113°
2026-05-07 02:51 33.86981 -118.04673 1526 ft 125 kts 114°
2026-05-07 02:51 33.86596 -118.03728 1512 ft 127 kts 115°
2026-05-07 02:52 33.86216 -118.02777 1513 ft 126 kts 113°
2026-05-07 02:52 33.85882 -118.01809 1507 ft 128 kts 109°
2026-05-07 02:52 33.85606 -118.00790 1516 ft 128 kts 108°
2026-05-07 02:52 33.85341 -117.99773 1521 ft 126 kts 108°
2026-05-07 02:53 33.85091 -117.98860 1511 ft 127 kts 109°
2026-05-07 02:53 33.84814 -117.97852 1523 ft 127 kts 109°
2026-05-07 02:53 33.84542 -117.96837 1526 ft 127 kts 107°
2026-05-07 02:53 33.84324 -117.95808 1532 ft 127 kts 103°
2026-05-07 02:54 33.84203 -117.95121 1528 ft 127 kts 102°
2026-05-07 02:54 33.84047 -117.94121 1509 ft 127 kts 100°
2026-05-07 02:54 33.83893 -117.93078 1524 ft 125 kts 100°
2026-05-07 02:54 33.83746 -117.92047 1533 ft 125 kts 100°
2026-05-07 02:55 33.83600 -117.91021 1543 ft 125 kts 100°
2026-05-07 02:55 33.83401 -117.89615 1590 ft 133 kts 100°
2026-05-07 02:55 33.83242 -117.88509 1591 ft 135 kts 100°
2026-05-07 02:55 33.83084 -117.87421 1582 ft 137 kts 100°
2026-05-07 02:56 33.82921 -117.86286 1586 ft 138 kts 99°
2026-05-07 02:56 33.82811 -117.85517 1585 ft 138 kts 100°
2026-05-07 02:56 33.82652 -117.84387 1585 ft 140 kts 99°
2026-05-07 02:56 33.82490 -117.83224 1582 ft 141 kts 99°
2026-05-07 02:57 33.82328 -117.82061 1580 ft 142 kts 99°
2026-05-07 02:57 33.82167 -117.80895 1579 ft 141 kts 99°
2026-05-07 02:57 33.82007 -117.79743 1579 ft 140 kts 99°
2026-05-07 02:57 33.81852 -117.78616 1729 ft 129 kts 99°
2026-05-07 02:58 33.81710 -117.77600 2020 ft 119 kts 99°
2026-05-07 02:58 33.81575 -117.76645 2295 ft 113 kts 99°
2026-05-07 02:58 33.81448 -117.75746 2570 ft 109 kts 99°
2026-05-07 02:58 33.81309 -117.74863 2840 ft 106 kts 99°
2026-05-07 02:59 33.81175 -117.74001 3110 ft 103 kts 100°
2026-05-07 02:59 33.81043 -117.73170 3368 ft 100 kts 99°
2026-05-07 02:59 33.80897 -117.72323 3517 ft 109 kts 99°
2026-05-07 02:59 33.80734 -117.71383 3566 ft 120 kts 99°
2026-05-07 03:00 33.80562 -117.70384 3573 ft 124 kts 99°
2026-05-07 03:00 33.80383 -117.69346 3570 ft 132 kts 99°
2026-05-07 03:00 33.80195 -117.68265 3558 ft 132 kts 99°
2026-05-07 03:00 33.80007 -117.67191 3554 ft 132 kts 100°
2026-05-07 03:01 33.79826 -117.66148 3764 ft 122 kts 99°
2026-05-07 03:01 33.79659 -117.65177 4001 ft 115 kts 98°
2026-05-07 03:01 33.79516 -117.64256 4238 ft 111 kts 97°
2026-05-07 03:01 33.79396 -117.63358 4453 ft 108 kts 95°
2026-05-07 03:02 33.79252 -117.62428 4540 ft 119 kts 95°
2026-05-07 03:02 33.79111 -117.61423 4558 ft 126 kts 96°
2026-05-07 03:02 33.78972 -117.60368 4553 ft 129 kts 96°
2026-05-07 03:02 33.78832 -117.59305 4547 ft 129 kts 95°
2026-05-07 03:03 33.78697 -117.58242 4546 ft 128 kts 96°
2026-05-07 03:03 33.78568 -117.57189 4546 ft 127 kts 95°
2026-05-07 03:03 33.78441 -117.56145 4549 ft 126 kts 96°
2026-05-07 03:03 33.78309 -117.55111 4549 ft 127 kts 95°
2026-05-07 03:04 33.78178 -117.54071 4550 ft 125 kts 95°
2026-05-07 03:04 33.78047 -117.53033 4552 ft 125 kts 95°
2026-05-07 03:04 33.77921 -117.51999 4553 ft 125 kts 96°
2026-05-07 03:04 33.77796 -117.50957 4554 ft 126 kts 95°
2026-05-07 03:05 33.77665 -117.49908 4549 ft 128 kts 95°
2026-05-07 03:05 33.77533 -117.48862 4549 ft 126 kts 95°
2026-05-07 03:05 33.77399 -117.47813 4549 ft 127 kts 95°
2026-05-07 03:05 33.77271 -117.46766 4547 ft 127 kts 96°
2026-05-07 03:06 33.77160 -117.45716 4545 ft 127 kts 96°
2026-05-07 03:06 33.77051 -117.44664 4539 ft 127 kts 96°
2026-05-07 03:06 33.76947 -117.43621 4540 ft 128 kts 95°
2026-05-07 03:06 33.76836 -117.42557 4531 ft 128 kts 94°
2026-05-07 03:07 33.76705 -117.41500 4533 ft 128 kts 95°
2026-05-07 03:07 33.76567 -117.40442 4532 ft 128 kts 95°
2026-05-07 03:07 33.76433 -117.39377 4531 ft 129 kts 96°
2026-05-07 03:07 33.76298 -117.38311 4532 ft 131 kts 95°
2026-05-07 03:08 33.76162 -117.37224 4529 ft 132 kts 96°
2026-05-07 03:08 33.76036 -117.36143 4529 ft 131 kts 96°
2026-05-07 03:08 33.75903 -117.35062 4525 ft 130 kts 96°
2026-05-07 03:08 33.75775 -117.34005 4528 ft 129 kts 95°
2026-05-07 03:09 33.75631 -117.32938 4528 ft 127 kts 95°
2026-05-07 03:09 33.75497 -117.31903 4535 ft 127 kts 96°
2026-05-07 03:09 33.75364 -117.30847 4536 ft 128 kts 95°
2026-05-07 03:09 33.75237 -117.29783 4535 ft 128 kts 96°
2026-05-07 03:10 33.75110 -117.28725 4536 ft 128 kts 96°
2026-05-07 03:10 33.74982 -117.27675 4538 ft 127 kts 96°
2026-05-07 03:10 33.74853 -117.26623 4528 ft 127 kts 96°
2026-05-07 03:10 33.74720 -117.25567 4528 ft 129 kts 95°
2026-05-07 03:11 33.74590 -117.24497 4521 ft 129 kts 96°
2026-05-07 03:11 33.74463 -117.23431 4522 ft 129 kts 96°
2026-05-07 03:11 33.74338 -117.22363 4517 ft 129 kts 96°
2026-05-07 03:11 33.74216 -117.21297 4518 ft 129 kts 95°
2026-05-07 03:12 33.74087 -117.20234 4521 ft 128 kts 96°
2026-05-07 03:12 33.73959 -117.19188 4522 ft 128 kts 95°
2026-05-07 03:12 33.73829 -117.18126 4569 ft 128 kts 95°
2026-05-07 03:12 33.73701 -117.17063 4574 ft 129 kts 95°
2026-05-07 03:13 33.73569 -117.15992 4576 ft 130 kts 96°
2026-05-07 03:13 33.73440 -117.14925 4577 ft 129 kts 95°
2026-05-07 03:13 33.73321 -117.13857 4580 ft 129 kts 94°
2026-05-07 03:13 33.73209 -117.12789 4582 ft 129 kts 94°
2026-05-07 03:14 33.73107 -117.11703 4463 ft 135 kts 92°
2026-05-07 03:14 33.73045 -117.10516 4059 ft 151 kts 90°
2026-05-07 03:14 33.73102 -117.07835 3398 ft 166 kts 84°
2026-05-07 03:15 33.73246 -117.06459 3093 ft 166 kts 81°
2026-05-07 03:15 33.73384 -117.05394 2751 ft 65 kts 83°
2026-05-07 03:15 33.73433 -117.04807 2423 ft 94 kts 87°
2026-05-07 03:15 33.73478 -117.03938 2111 ft 105 kts 90°
2026-05-07 03:16 33.73517 -117.03124 1979 ft 89 kts 90°
2026-05-07 03:16 33.73539 -117.02514 1898 ft 55 kts 127°
2026-05-07 03:16 33.73342 -117.02259 1716 ft 29 kts 153°
2026-05-07 03:16 33.73207 -117.02177 1614 ft 13 kts 155°
2026-05-07 03:17 33.73189 -117.02152 1553 ft 10 kts 155°
2026-05-07 03:17 33.73158 -117.02138 1527 ft 1 kts 155°
2026-05-07 03:17 33.73137 -117.02127 1518 ft 1 kts 155°
2026-05-07 03:17 33.73071 -117.02151 1532 ft 19 kts 242°
2026-05-07 03:18 33.73062 -117.02182 1512 ft 0 kts 240°